,,,PA_Meas_PMT16A,,PR_Meas_QMR101_102,,RH_Meas_QMH101,,SR_Meas_QMS101,,TA_Meas_QMH101,,GenWind,,GenWind,
date,time,status,PA,status,PR,status,RH,status,SR,status,TA,status,DirAvg,status,SpdAvg,
2008-09-12, 00:00:04,VALID,1008.7,VALID,0,VALID,93.995,VALID,0,VALID,24.9784,VALID,38,VALID,0.00195313,
2008-09-12, 00:01:04,VALID,1008.68,VALID,0,VALID,94.0332,VALID,0,VALID,24.9784,VALID,25,VALID,0.439063,
2008-09-12, 00:02:04,VALID,1008.67,VALID,0,VALID,94.0027,VALID,0.105969,VALID,24.9589,VALID,4,VALID,0.380859,
2008-09-12, 00:03:04,VALID,1008.65,VALID,0,VALID,94.0255,VALID,0,VALID,24.9589,VALID,4,VALID,0.176563,
2008-09-12, 00:04:04,VALID,1008.64,VALID,0,VALID,93.995,VALID,0,VALID,24.9394,VALID,4,VALID,0.264062,
2008-09-12, 00:05:04,VALID,1008.61,VALID,0,VALID,93.9798,VALID,0,VALID,24.9199,VALID,6,VALID,0.139844,
2008-09-12, 00:06:04,VALID,1008.59,VALID,0,VALID,94.0179,VALID,0,VALID,24.9199,VALID,5,VALID,0.115625,
2008-09-12, 00:07:04,VALID,1008.59,VALID,0,VALID,94.0103,VALID,0,VALID,24.9004,VALID,329,VALID,0,
2008-09-12, 00:08:04,VALID,1008.55,VALID,0,VALID,93.9874,VALID,0,VALID,24.9218,VALID,8,VALID,0.380859,
2008-09-12, 00:09:04,VALID,1008.56,VALID,0,VALID,93.9417,VALID,0,VALID,24.9413,VALID,21,VALID,0.161328,
2008-09-12, 00:10:04,VALID,1008.55,VALID,0,VALID,93.9188,VALID,0,VALID,24.9004,VALID,20,VALID,0.0820313,
2008-09-12, 00:11:04,VALID,1008.52,VALID,0,VALID,93.934,VALID,0,VALID,24.9218,VALID,20,VALID,0,
2008-09-12, 00:12:04,VALID,1008.49,VALID,0,VALID,93.9112,VALID,0,VALID,24.8809,VALID,30,VALID,0.0878906,
2008-09-12, 00:13:04,VALID,1008.45,VALID,0,VALID,93.812,VALID,0,VALID,24.8809,VALID,23,VALID,0.513672,
2008-09-12, 00:14:04,VALID,1008.47,VALID,0,VALID,93.812,VALID,0,VALID,24.8809,VALID,39,VALID,0.110547,
2008-09-12, 00:15:04,VALID,1008.43,VALID,0,VALID,93.7663,VALID,0.105969,VALID,24.8809,VALID,41,VALID,0.458984,
2008-09-12, 00:16:04,VALID,1008.41,VALID,0,VALID,93.6976,VALID,0,VALID,24.8615,VALID,41,VALID,0.0707031,
2008-09-12, 00:17:04,VALID,1008.39,VALID,0,VALID,93.6137,VALID,0,VALID,24.842,VALID,41,VALID,0.100781,
2008-09-12, 00:18:04,VALID,1008.36,VALID,0,VALID,93.568,VALID,0.105969,VALID,24.8633,VALID,38,VALID,0.258203,
2008-09-12, 00:19:04,VALID,1008.35,VALID,0,VALID,93.5832,VALID,0,VALID,24.8225,VALID,38,VALID,0.0578125,
2008-09-12, 00:20:04,VALID,1008.31,VALID,0,VALID,93.5222,VALID,0,VALID,24.8225,VALID,358,VALID,0.494922,
2008-09-12, 00:21:04,VALID,1008.3,VALID,0,VALID,93.446,VALID,0.105969,VALID,24.8225,VALID,39,VALID,0.244922,
2008-09-12, 00:22:04,VALID,1008.3,VALID,0,VALID,93.4765,VALID,0.105969,VALID,24.842,VALID,46,VALID,0.522656,
2008-09-12, 00:23:04,VALID,1008.27,VALID,0,VALID,93.4994,VALID,0.105969,VALID,24.8225,VALID,87,VALID,0.40625,
2008-09-12, 00:24:04,VALID,1008.27,VALID,0,VALID,93.4155,VALID,0.105969,VALID,24.803,VALID,43,VALID,0.0585938,
2008-09-12, 00:25:04,VALID,1008.22,VALID,0,VALID,93.3697,VALID,0,VALID,24.7835,VALID,36,VALID,0.203516,
2008-09-12, 00:26:04,VALID,1008.24,VALID,0,VALID,93.3697,VALID,0.105969,VALID,24.7835,VALID,35,VALID,0.009375,
2008-09-12, 00:27:04,VALID,1008.21,VALID,0,VALID,93.3697,VALID,0,VALID,24.764,VALID,352,VALID,0.0199219,
2008-09-12, 00:28:04,VALID,1008.22,VALID,0,VALID,93.3468,VALID,0,VALID,24.764,VALID,30,VALID,0.144922,
2008-09-12, 00:29:04,VALID,1008.21,VALID,0,VALID,93.385,VALID,0,VALID,24.764,VALID,331,VALID,0.329688,
2008-09-12, 00:30:04,VALID,1008.2,VALID,0,VALID,93.4841,VALID,0,VALID,24.764,VALID,306,VALID,0.177344,
2008-09-12, 00:31:04,VALID,1008.18,VALID,0,VALID,93.5222,VALID,0.105969,VALID,24.7445,VALID,306,VALID,0,
2008-09-12, 00:32:04,VALID,1008.16,VALID,0,VALID,93.4612,VALID,0,VALID,24.725,VALID,306,VALID,0.0996094,
2008-09-12, 00:33:04,VALID,1008.13,VALID,0,VALID,93.4384,VALID,0,VALID,24.725,VALID,306,VALID,0.143359,
2008-09-12, 00:34:04,VALID,1008.1,VALID,0,VALID,93.507,VALID,0.105969,VALID,24.725,VALID,304,VALID,0.117578,
2008-09-12, 00:35:04,VALID,1008.11,VALID,0,VALID,93.507,VALID,0.105969,VALID,24.7055,VALID,316,VALID,0.121875,
2008-09-12, 00:36:04,VALID,1008.09,VALID,0,VALID,93.4689,VALID,0,VALID,24.7055,VALID,70,VALID,0.475,
2008-09-12, 00:37:04,VALID,1008.08,VALID,0,VALID,93.4155,VALID,0.105969,VALID,24.686,VALID,53,VALID,0.160547,
2008-09-12, 00:38:04,VALID,1008.07,VALID,0,VALID,93.4612,VALID,0,VALID,24.686,VALID,45,VALID,0.434375,
2008-09-12, 00:39:04,VALID,1008.06,VALID,0,VALID,93.4536,VALID,0.105969,VALID,24.686,VALID,54,VALID,0.327734,
2008-09-12, 00:40:04,VALID,1008.04,VALID,0,VALID,93.4765,VALID,0.105969,VALID,24.6471,VALID,354,VALID,0.226172,
2008-09-12, 00:41:04,VALID,1008.04,VALID,0,VALID,93.5299,VALID,0.105969,VALID,24.6666,VALID,6,VALID,0.270703,
2008-09-12, 00:42:04,VALID,1008.05,VALID,0,VALID,93.507,VALID,0.105969,VALID,24.6666,VALID,3,VALID,0.178125,
2008-09-12, 00:43:04,VALID,1008.05,VALID,0,VALID,93.4917,VALID,0.105969,VALID,24.6471,VALID,356,VALID,0.398438,
2008-09-12, 00:44:04,VALID,1008.04,VALID,0,VALID,93.4994,VALID,0.105969,VALID,24.6666,VALID,358,VALID,0.255469,
2008-09-12, 00:45:04,VALID,1008.02,VALID,0,VALID,93.5222,VALID,0,VALID,24.6276,VALID,87,VALID,0.584375,
2008-09-12, 00:46:04,VALID,1008.03,VALID,0,VALID,93.5451,VALID,0.105969,VALID,24.6276,VALID,43,VALID,0.15625,
2008-09-12, 00:47:04,VALID,1008.05,VALID,0,VALID,93.5375,VALID,0.105969,VALID,24.6081,VALID,101,VALID,0.348437,
2008-09-12, 00:48:04,VALID,1008.05,VALID,0,VALID,93.5985,VALID,0.105969,VALID,24.6276,VALID,100,VALID,0.349219,
2008-09-12, 00:49:04,VALID,1008.03,VALID,0,VALID,93.6137,VALID,0.105969,VALID,24.6276,VALID,90,VALID,0.254687,
2008-09-12, 00:50:04,VALID,1008.04,VALID,0,VALID,93.5832,VALID,0.105969,VALID,24.6081,VALID,92,VALID,0.314063,
2008-09-12, 00:51:04,VALID,1008.05,VALID,0,VALID,93.5909,VALID,0.105969,VALID,24.5867,VALID,89,VALID,0.150391,
2008-09-12, 00:52:04,VALID,1008.03,VALID,0,VALID,93.5375,VALID,0.105969,VALID,24.5672,VALID,54,VALID,0.174219,
2008-09-12, 00:53:04,VALID,1008.01,VALID,0,VALID,93.5299,VALID,0.105969,VALID,24.6081,VALID,56,VALID,0.363672,
2008-09-12, 00:54:04,VALID,1008.02,VALID,0,VALID,93.4994,VALID,0.105969,VALID,24.6081,VALID,56,VALID,0.311328,
2008-09-12, 00:55:04,VALID,1008,VALID,0,VALID,93.4841,VALID,0.105969,VALID,24.5691,VALID,75,VALID,0.376172,
2008-09-12, 00:56:04,VALID,1007.98,VALID,0,VALID,93.507,VALID,0,VALID,24.6099,VALID,82,VALID,0.533594,
2008-09-12, 00:57:04,VALID,1007.95,VALID,0,VALID,93.5146,VALID,0,VALID,24.5691,VALID,58,VALID,0.505469,
2008-09-12, 00:58:04,VALID,1007.95,VALID,0,VALID,93.5527,VALID,0,VALID,24.5691,VALID,116,VALID,0.56875,
2008-09-12, 00:59:04,VALID,1007.93,VALID,0,VALID,93.5985,VALID,0.105969,VALID,24.5691,VALID,109,VALID,0.314063,
2008-09-12, 01:00:04,VALID,1007.94,VALID,0,VALID,93.6442,VALID,0.105969,VALID,24.5886,VALID,54,VALID,0.28125,
2008-09-12, 01:01:04,VALID,1007.95,VALID,0,VALID,93.6748,VALID,0.105969,VALID,24.5478,VALID,62,VALID,0.4375,
2008-09-12, 01:02:04,VALID,1007.88,VALID,0,VALID,93.6671,VALID,0.105969,VALID,24.5496,VALID,82,VALID,0.455078,
2008-09-12, 01:03:04,VALID,1007.85,VALID,0,VALID,93.6824,VALID,0.105969,VALID,24.5301,VALID,82,VALID,0.549219,
2008-09-12, 01:04:04,VALID,1007.83,VALID,0,VALID,93.6976,VALID,0.105969,VALID,24.5496,VALID,57,VALID,0.476953,
2008-09-12, 01:05:04,VALID,1007.81,VALID,0,VALID,93.6976,VALID,0,VALID,24.5496,VALID,77,VALID,0.476172,
2008-09-12, 01:06:04,VALID,1007.8,VALID,0,VALID,93.7053,VALID,0,VALID,24.5106,VALID,76,VALID,0.444531,
2008-09-12, 01:07:04,VALID,1007.75,VALID,0,VALID,93.7358,VALID,0,VALID,24.532,VALID,77,VALID,0.465234,
2008-09-12, 01:08:04,VALID,1007.74,VALID,0,VALID,93.751,VALID,0,VALID,24.5301,VALID,74,VALID,0.378516,
2008-09-12, 01:09:04,VALID,1007.72,VALID,0,VALID,93.7891,VALID,0,VALID,24.5301,VALID,74,VALID,0.109375,
2008-09-12, 01:10:04,VALID,1007.71,VALID,0,VALID,93.8654,VALID,0,VALID,24.5301,VALID,74,VALID,0.0742188,
2008-09-12, 01:11:04,VALID,1007.69,VALID,0,VALID,93.8883,VALID,0,VALID,24.5515,VALID,74,VALID,0.165625,
2008-09-12, 01:12:04,VALID,1007.64,VALID,0,VALID,93.9188,VALID,0,VALID,24.5515,VALID,74,VALID,0.00585938,
2008-09-12, 01:13:04,VALID,1007.64,VALID,0,VALID,93.9188,VALID,0,VALID,24.532,VALID,74,VALID,0,
2008-09-12, 01:14:04,VALID,1007.64,VALID,0,VALID,93.9798,VALID,0,VALID,24.571,VALID,75,VALID,0.136719,
2008-09-12, 01:15:04,VALID,1007.61,VALID,0,VALID,94.0027,VALID,0,VALID,24.5106,VALID,74,VALID,0,
2008-09-12, 01:16:04,VALID,1007.59,VALID,0,VALID,94.0637,VALID,0,VALID,24.532,VALID,74,VALID,0.136719,
2008-09-12, 01:17:04,VALID,1007.63,VALID,0,VALID,94.0942,VALID,0,VALID,24.5106,VALID,74,VALID,0.0246094,
2008-09-12, 01:18:04,VALID,1007.58,VALID,0,VALID,94.1171,VALID,0,VALID,24.5106,VALID,74,VALID,0.0015625,
2008-09-12, 01:19:04,VALID,1007.59,VALID,0,VALID,94.1628,VALID,0,VALID,24.4911,VALID,75,VALID,0.352734,
2008-09-12, 01:20:04,VALID,1007.57,VALID,0,VALID,94.1857,VALID,0,VALID,24.5106,VALID,75,VALID,0.0539063,
2008-09-12, 01:21:04,VALID,1007.55,VALID,0,VALID,94.2238,VALID,0,VALID,24.4911,VALID,74,VALID,0.00859375,
2008-09-12, 01:22:04,VALID,1007.52,VALID,0,VALID,94.2467,VALID,0,VALID,24.4911,VALID,74,VALID,0.0570313,
2008-09-12, 01:23:04,VALID,1007.51,VALID,0,VALID,94.2696,VALID,0.105969,VALID,24.4911,VALID,74,VALID,0.236328,
2008-09-12, 01:24:04,VALID,1007.53,VALID,0,VALID,94.2924,VALID,0,VALID,24.4911,VALID,74,VALID,0.265625,
2008-09-12, 01:25:04,VALID,1007.52,VALID,0,VALID,94.3077,VALID,0,VALID,24.493,VALID,74,VALID,0.139844,
2008-09-12, 01:26:04,VALID,1007.52,VALID,0,VALID,94.3306,VALID,0,VALID,24.4911,VALID,74,VALID,0.00117188,
2008-09-12, 01:27:04,VALID,1007.52,VALID,0,VALID,94.3611,VALID,0,VALID,24.4717,VALID,53,VALID,0.598828,
2008-09-12, 01:28:04,VALID,1007.48,VALID,0,VALID,94.3763,VALID,0,VALID,24.493,VALID,64,VALID,0.380469,
2008-09-12, 01:29:04,VALID,1007.47,VALID,0,VALID,94.3687,VALID,0,VALID,24.4911,VALID,79,VALID,0.603906,
2008-09-12, 01:30:04,VALID,1007.5,VALID,0,VALID,94.3916,VALID,0,VALID,24.4911,VALID,72,VALID,0.364062,
2008-09-12, 01:31:04,VALID,1007.47,VALID,0,VALID,94.4068,VALID,0,VALID,24.4911,VALID,95,VALID,0.45625,
2008-09-12, 01:32:04,VALID,1007.47,VALID,0,VALID,94.4221,VALID,0,VALID,24.5106,VALID,95,VALID,0.285156,
2008-09-12, 01:33:04,VALID,1007.45,VALID,0,VALID,94.4297,VALID,0,VALID,24.5106,VALID,95,VALID,0.441406,
2008-09-12, 01:34:04,VALID,1007.45,VALID,0,VALID,94.4068,VALID,0,VALID,24.4911,VALID,71,VALID,0.412109,
2008-09-12, 01:35:04,VALID,1007.44,VALID,0,VALID,94.3839,VALID,0,VALID,24.5106,VALID,72,VALID,0.376172,
2008-09-12, 01:36:04,VALID,1007.42,VALID,0,VALID,94.3458,VALID,0,VALID,24.493,VALID,71,VALID,0.197656,
2008-09-12, 01:37:04,VALID,1007.42,VALID,0,VALID,94.3458,VALID,0,VALID,24.532,VALID,72,VALID,0.1125,
2008-09-12, 01:38:04,VALID,1007.41,VALID,0,VALID,94.3382,VALID,0,VALID,24.5106,VALID,69,VALID,0.519141,
2008-09-12, 01:39:04,VALID,1007.41,VALID,0,VALID,94.2924,VALID,0,VALID,24.4911,VALID,61,VALID,0.243359,
2008-09-12, 01:40:04,VALID,1007.36,VALID,0,VALID,94.2924,VALID,0,VALID,24.5125,VALID,67,VALID,0.521875,
2008-09-12, 01:41:04,VALID,1007.36,VALID,0,VALID,94.2619,VALID,0,VALID,24.5125,VALID,67,VALID,0.358984,
2008-09-12, 01:42:04,VALID,1007.36,VALID,0,VALID,94.2772,VALID,0,VALID,24.4911,VALID,67,VALID,0.573828,
2008-09-12, 01:43:04,VALID,1007.38,VALID,0,VALID,94.2696,VALID,0,VALID,24.5301,VALID,68,VALID,0.490625,
2008-09-12, 01:44:04,VALID,1007.35,VALID,0,VALID,94.2467,VALID,0,VALID,24.4911,VALID,68,VALID,0.446875,
2008-09-12, 01:45:04,VALID,1007.34,VALID,0,VALID,94.2924,VALID,0,VALID,24.532,VALID,70,VALID,0.353906,
2008-09-12, 01:46:04,VALID,1007.34,VALID,0,VALID,94.2924,VALID,0,VALID,24.5106,VALID,76,VALID,0.523828,
2008-09-12, 01:47:04,VALID,1007.34,VALID,0,VALID,94.3306,VALID,0,VALID,24.5106,VALID,76,VALID,0.3625,
2008-09-12, 01:48:04,VALID,1007.34,VALID,0,VALID,94.3001,VALID,0,VALID,24.5106,VALID,76,VALID,0.342969,
2008-09-12, 01:49:04,VALID,1007.33,VALID,0,VALID,94.2543,VALID,0,VALID,24.4911,VALID,58,VALID,0.544531,
2008-09-12, 01:50:04,VALID,1007.32,VALID,0,VALID,94.2238,VALID,0,VALID,24.4911,VALID,52,VALID,0.463672,
2008-09-12, 01:51:04,VALID,1007.3,VALID,0,VALID,94.1933,VALID,0,VALID,24.4717,VALID,55,VALID,0.31875,
2008-09-12, 01:52:04,VALID,1007.26,VALID,0,VALID,94.1781,VALID,0,VALID,24.4717,VALID,47,VALID,0.265234,
2008-09-12, 01:53:04,VALID,1007.25,VALID,0,VALID,94.1704,VALID,0,VALID,24.4522,VALID,47,VALID,0.185937,
2008-09-12, 01:54:04,VALID,1007.21,VALID,0,VALID,94.1628,VALID,0,VALID,24.4522,VALID,47,VALID,0.159766,
2008-09-12, 01:55:04,VALID,1007.21,VALID,0,VALID,94.1704,VALID,0,VALID,24.4522,VALID,47,VALID,0.155859,
2008-09-12, 01:56:04,VALID,1007.18,VALID,0,VALID,94.2086,VALID,0,VALID,24.4522,VALID,47,VALID,0,
2008-09-12, 01:57:04,VALID,1007.18,VALID,0,VALID,94.1933,VALID,0,VALID,24.4327,VALID,47,VALID,0.00390625,
2008-09-12, 01:58:04,VALID,1007.19,VALID,0,VALID,94.2314,VALID,0.105969,VALID,24.4327,VALID,47,VALID,0,
2008-09-12, 01:59:04,VALID,1007.17,VALID,0,VALID,94.2772,VALID,0,VALID,24.4132,VALID,47,VALID,0.159375,
2008-09-12, 02:00:04,VALID,1007.21,VALID,0,VALID,94.2848,VALID,0,VALID,24.4522,VALID,47,VALID,0.221484,
2008-09-12, 02:01:04,VALID,1007.18,VALID,0,VALID,94.3153,VALID,0,VALID,24.4327,VALID,47,VALID,0.371094,
2008-09-12, 02:02:04,VALID,1007.2,VALID,0,VALID,94.3611,VALID,0,VALID,24.4522,VALID,71,VALID,0.56875,
2008-09-12, 02:03:04,VALID,1007.22,VALID,0,VALID,94.4526,VALID,0,VALID,24.4522,VALID,79,VALID,0.480078,
2008-09-12, 02:04:04,VALID,1007.21,VALID,0,VALID,94.4297,VALID,0,VALID,24.4522,VALID,98,VALID,1.09414,
2008-09-12, 02:05:04,VALID,1007.2,VALID,0,VALID,94.4373,VALID,0,VALID,24.4522,VALID,89,VALID,1.14688,
2008-09-12, 02:06:04,VALID,1007.19,VALID,0,VALID,94.3763,VALID,0,VALID,24.4132,VALID,82,VALID,1.15156,
2008-09-12, 02:07:04,VALID,1007.16,VALID,0,VALID,94.3382,VALID,0.105969,VALID,24.4132,VALID,91,VALID,1.43125,
2008-09-12, 02:08:04,VALID,1007.18,VALID,0,VALID,94.3153,VALID,0,VALID,24.4327,VALID,98,VALID,1.07617,
2008-09-12, 02:09:04,VALID,1007.12,VALID,0,VALID,94.2619,VALID,0.105969,VALID,24.4132,VALID,87,VALID,1.65117,
2008-09-12, 02:10:04,VALID,1007.1,VALID,0,VALID,94.1857,VALID,0.105969,VALID,24.4113,VALID,94,VALID,1.51328,
2008-09-12, 02:11:04,VALID,1007.1,VALID,0,VALID,94.1628,VALID,0,VALID,24.4132,VALID,89,VALID,1.21836,
2008-09-12, 02:12:04,VALID,1007.08,VALID,0,VALID,94.1399,VALID,0,VALID,24.4327,VALID,86,VALID,1.23438,
2008-09-12, 02:13:04,VALID,1007.04,VALID,0,VALID,94.0942,VALID,0.105969,VALID,24.4132,VALID,80,VALID,1.54531,
2008-09-12, 02:14:04,VALID,1007.05,VALID,0,VALID,94.0637,VALID,0.105969,VALID,24.4132,VALID,84,VALID,1.51328,
2008-09-12, 02:15:04,VALID,1007.02,VALID,0,VALID,94.0408,VALID,0,VALID,24.4132,VALID,81,VALID,1.58047,
2008-09-12, 02:16:04,VALID,1007.02,VALID,0,VALID,94.056,VALID,0,VALID,24.4132,VALID,83,VALID,1.43672,
2008-09-12, 02:17:04,VALID,1007.03,VALID,0,VALID,94.0789,VALID,0,VALID,24.4345,VALID,86,VALID,1.0168,
2008-09-12, 02:18:04,VALID,1007.01,VALID,0,VALID,94.0789,VALID,0.105969,VALID,24.3937,VALID,85,VALID,1.33672,
2008-09-12, 02:19:04,VALID,1007,VALID,0,VALID,94.0789,VALID,0,VALID,24.3937,VALID,93,VALID,1.58594,
2008-09-12, 02:20:04,VALID,1007,VALID,0,VALID,94.0484,VALID,0.105969,VALID,24.3742,VALID,86,VALID,2.07031,
2008-09-12, 02:21:04,VALID,1007,VALID,0,VALID,94.0332,VALID,0,VALID,24.3742,VALID,79,VALID,1.24922,
2008-09-12, 02:22:04,VALID,1006.98,VALID,0,VALID,94.0484,VALID,0.105969,VALID,24.3742,VALID,87,VALID,1.50273,
2008-09-12, 02:23:04,VALID,1006.97,VALID,0,VALID,94.0637,VALID,0,VALID,24.3742,VALID,69,VALID,1.92188,
2008-09-12, 02:24:04,VALID,1007,VALID,0,VALID,94.1171,VALID,0,VALID,24.3956,VALID,85,VALID,1.51094,
2008-09-12, 02:25:04,VALID,1006.99,VALID,0,VALID,94.1704,VALID,0,VALID,24.3352,VALID,83,VALID,1.2668,
2008-09-12, 02:26:04,VALID,1006.95,VALID,0,VALID,94.1018,VALID,0.105969,VALID,24.3547,VALID,90,VALID,2.09883,
2008-09-12, 02:27:04,VALID,1006.95,VALID,0,VALID,94.1094,VALID,0,VALID,24.3547,VALID,93,VALID,1.41328,
2008-09-12, 02:28:04,VALID,1006.98,VALID,0,VALID,94.0408,VALID,0.105969,VALID,24.3547,VALID,70,VALID,1.7668,
2008-09-12, 02:29:04,VALID,1006.97,VALID,0,VALID,94.0027,VALID,0,VALID,24.3352,VALID,84,VALID,1.43516,
2008-09-12, 02:30:04,VALID,1006.98,VALID,0,VALID,93.9493,VALID,0,VALID,24.3547,VALID,53,VALID,1.07695,
2008-09-12, 02:31:04,VALID,1006.98,VALID,0,VALID,93.8883,VALID,0,VALID,24.3547,VALID,79,VALID,0.81875,
2008-09-12, 02:32:04,VALID,1007,VALID,0,VALID,93.8654,VALID,0,VALID,24.3742,VALID,77,VALID,0.547266,
2008-09-12, 02:33:04,VALID,1007,VALID,0,VALID,93.8044,VALID,0,VALID,24.3547,VALID,74,VALID,1.00312,
2008-09-12, 02:34:04,VALID,1007.01,VALID,0,VALID,93.8273,VALID,0,VALID,24.3547,VALID,78,VALID,0.329297,
2008-09-12, 02:35:04,VALID,1007,VALID,0,VALID,93.7663,VALID,0,VALID,24.3761,VALID,52,VALID,0.251563,
2008-09-12, 02:36:04,VALID,1007.05,VALID,0,VALID,93.7205,VALID,0,VALID,24.3158,VALID,47,VALID,0.165234,
2008-09-12, 02:37:04,VALID,1006.99,VALID,0,VALID,93.7129,VALID,0,VALID,24.3547,VALID,47,VALID,0,
2008-09-12, 02:38:04,VALID,1007.02,VALID,0,VALID,93.7434,VALID,0.105969,VALID,24.3547,VALID,47,VALID,0.0269531,
2008-09-12, 02:39:04,VALID,1007,VALID,0,VALID,93.7663,VALID,0,VALID,24.3547,VALID,9,VALID,0.217969,
2008-09-12, 02:40:04,VALID,1006.99,VALID,0,VALID,93.7739,VALID,0.105969,VALID,24.3547,VALID,9,VALID,0.171094,
2008-09-12, 02:41:04,VALID,1007.05,VALID,0,VALID,93.8044,VALID,0,VALID,24.3547,VALID,9,VALID,0.164453,
2008-09-12, 02:42:04,VALID,1007.06,VALID,0,VALID,93.7891,VALID,0,VALID,24.3352,VALID,9,VALID,0.0527344,
2008-09-12, 02:43:04,VALID,1007.1,VALID,0,VALID,93.7815,VALID,0,VALID,24.3352,VALID,9,VALID,0.000390625,
2008-09-12, 02:44:04,VALID,1007.15,VALID,0,VALID,93.7968,VALID,0.105969,VALID,24.3566,VALID,26,VALID,0.410156,
2008-09-12, 02:45:04,VALID,1007.17,VALID,0,VALID,93.8654,VALID,0,VALID,24.3352,VALID,91,VALID,0.828516,
2008-09-12, 02:46:04,VALID,1007.23,VALID,0,VALID,93.9417,VALID,0.105969,VALID,24.3742,VALID,95,VALID,1.09492,
2008-09-12, 02:47:04,VALID,1007.27,VALID,0,VALID,93.8883,VALID,0,VALID,24.3742,VALID,96,VALID,1.31602,
2008-09-12, 02:48:04,VALID,1007.28,VALID,0,VALID,93.8883,VALID,0,VALID,24.4132,VALID,103,VALID,1.1625,
2008-09-12, 02:49:04,VALID,1007.3,VALID,0,VALID,93.7968,VALID,0,VALID,24.4132,VALID,109,VALID,1.60703,
2008-09-12, 02:50:04,VALID,1007.35,VALID,0,VALID,93.812,VALID,0.105969,VALID,24.4327,VALID,106,VALID,1.01953,
2008-09-12, 02:51:04,VALID,1007.38,VALID,0,VALID,93.7586,VALID,0,VALID,24.4327,VALID,98,VALID,0.855859,
2008-09-12, 02:52:04,VALID,1007.36,VALID,0,VALID,93.7663,VALID,0,VALID,24.4717,VALID,118,VALID,0.761719,
2008-09-12, 02:53:04,VALID,1007.41,VALID,0,VALID,93.7891,VALID,0.105969,VALID,24.4717,VALID,107,VALID,0.507422,
2008-09-12, 02:54:04,VALID,1007.4,VALID,0,VALID,93.7663,VALID,0,VALID,24.4327,VALID,125,VALID,0.955859,
2008-09-12, 02:55:04,VALID,1007.41,VALID,0,VALID,93.7129,VALID,0,VALID,24.4522,VALID,164,VALID,0.847656,
2008-09-12, 02:56:05,VALID,1007.42,VALID,0,VALID,93.5832,VALID,0.105969,VALID,24.4522,VALID,150,VALID,0.994531,
2008-09-12, 02:57:04,VALID,1007.4,VALID,0,VALID,93.5909,VALID,0,VALID,24.454,VALID,149,VALID,1.00586,
2008-09-12, 02:58:05,VALID,1007.43,VALID,0,VALID,93.5985,VALID,0,VALID,24.4327,VALID,176,VALID,0.94375,
2008-09-12, 02:59:05,VALID,1007.44,VALID,0,VALID,93.6442,VALID,0,VALID,24.4132,VALID,169,VALID,0.512891,
2008-09-12, 03:00:05,VALID,1007.45,VALID,0,VALID,93.6671,VALID,0.105969,VALID,24.3937,VALID,173,VALID,0.672266,
2008-09-12, 03:01:05,VALID,1007.45,VALID,0,VALID,93.7129,VALID,0,VALID,24.3742,VALID,181,VALID,0.964063,
2008-09-12, 03:02:05,VALID,1007.43,VALID,0,VALID,93.7281,VALID,0.105969,VALID,24.3937,VALID,174,VALID,0.803906,
2008-09-12, 03:03:05,VALID,1007.43,VALID,0,VALID,93.7129,VALID,0,VALID,24.4132,VALID,181,VALID,0.555078,
2008-09-12, 03:04:05,VALID,1007.42,VALID,0,VALID,93.8273,VALID,0.105969,VALID,24.4132,VALID,197,VALID,0.447656,
2008-09-12, 03:05:05,VALID,1007.46,VALID,0,VALID,93.8425,VALID,0,VALID,24.415,VALID,187,VALID,0.531641,
2008-09-12, 03:06:05,VALID,1007.43,VALID,0,VALID,93.7891,VALID,0,VALID,24.3937,VALID,185,VALID,0.459375,
2008-09-12, 03:07:05,VALID,1007.43,VALID,0,VALID,93.8273,VALID,0,VALID,24.415,VALID,184,VALID,0.235938,
2008-09-12, 03:08:05,VALID,1007.45,VALID,0,VALID,93.8578,VALID,0.105969,VALID,24.4132,VALID,184,VALID,0.307422,
2008-09-12, 03:09:05,VALID,1007.43,VALID,0,VALID,93.8578,VALID,0.105969,VALID,24.4132,VALID,184,VALID,0.345313,
2008-09-12, 03:10:05,VALID,1007.42,VALID,0,VALID,93.8578,VALID,0,VALID,24.4132,VALID,184,VALID,0.059375,
2008-09-12, 03:11:05,VALID,1007.45,VALID,0,VALID,93.8959,VALID,0.105969,VALID,24.4132,VALID,184,VALID,0.0246094,
2008-09-12, 03:12:05,VALID,1007.43,VALID,0,VALID,93.873,VALID,0.105969,VALID,24.415,VALID,184,VALID,0.219141,
2008-09-12, 03:13:05,VALID,1007.44,VALID,0,VALID,93.9112,VALID,0.105969,VALID,24.4132,VALID,184,VALID,0,
2008-09-12, 03:14:05,VALID,1007.42,VALID,0,VALID,93.8959,VALID,0,VALID,24.4132,VALID,63,VALID,0.483594,
2008-09-12, 03:15:05,VALID,1007.42,VALID,0,VALID,93.9493,VALID,0,VALID,24.454,VALID,48,VALID,0.316406,
2008-09-12, 03:16:05,VALID,1007.41,VALID,0,VALID,93.9645,VALID,0,VALID,24.4327,VALID,47,VALID,0.190625,
2008-09-12, 03:17:05,VALID,1007.39,VALID,0,VALID,93.9722,VALID,0,VALID,24.4132,VALID,47,VALID,0.0234375,
2008-09-12, 03:18:05,VALID,1007.38,VALID,0,VALID,94.0103,VALID,0,VALID,24.4132,VALID,47,VALID,0,
2008-09-12, 03:19:05,VALID,1007.39,VALID,0,VALID,94.0179,VALID,0,VALID,24.3937,VALID,47,VALID,0,
2008-09-12, 03:20:05,VALID,1007.4,VALID,0,VALID,94.0179,VALID,0,VALID,24.4132,VALID,47,VALID,0,
2008-09-12, 03:21:05,VALID,1007.36,VALID,0,VALID,94.0789,VALID,0,VALID,24.4132,VALID,47,VALID,0,
2008-09-12, 03:22:05,VALID,1007.35,VALID,0,VALID,94.1018,VALID,0,VALID,24.4132,VALID,47,VALID,0.166406,
2008-09-12, 03:23:05,VALID,1007.34,VALID,0,VALID,94.1094,VALID,0,VALID,24.4132,VALID,47,VALID,0.147656,
2008-09-12, 03:24:05,VALID,1007.39,VALID,0,VALID,94.1094,VALID,0,VALID,24.4327,VALID,47,VALID,0,
2008-09-12, 03:25:05,VALID,1007.4,VALID,0,VALID,94.1323,VALID,0.105969,VALID,24.4327,VALID,44,VALID,0.504687,
2008-09-12, 03:26:05,VALID,1007.42,VALID,0,VALID,94.1094,VALID,0.105969,VALID,24.454,VALID,37,VALID,0.526172,
2008-09-12, 03:27:05,VALID,1007.44,VALID,0,VALID,94.1552,VALID,0,VALID,24.4132,VALID,37,VALID,0.365234,
2008-09-12, 03:28:05,VALID,1007.49,VALID,0,VALID,94.1781,VALID,0,VALID,24.3937,VALID,37,VALID,0.44375,
2008-09-12, 03:29:05,VALID,1007.51,VALID,0,VALID,94.2238,VALID,0.105969,VALID,24.3937,VALID,37,VALID,0.400781,
2008-09-12, 03:30:05,VALID,1007.55,VALID,0,VALID,94.2467,VALID,0,VALID,24.3956,VALID,37,VALID,0.233594,
2008-09-12, 03:31:05,VALID,1007.55,VALID,0,VALID,94.2543,VALID,0,VALID,24.3742,VALID,37,VALID,0.405078,
2008-09-12, 03:32:05,VALID,1007.57,VALID,0,VALID,94.3001,VALID,0.105969,VALID,24.3742,VALID,76,VALID,0.375391,
2008-09-12, 03:33:05,VALID,1007.57,VALID,0,VALID,94.3306,VALID,0,VALID,24.4132,VALID,86,VALID,0.575391,
2008-09-12, 03:34:05,VALID,1007.6,VALID,0,VALID,94.3992,VALID,0,VALID,24.3937,VALID,106,VALID,0.640234,
2008-09-12, 03:35:05,VALID,1007.6,VALID,0,VALID,94.4068,VALID,0,VALID,24.3937,VALID,99,VALID,0.903906,
2008-09-12, 03:36:05,VALID,1007.62,VALID,0,VALID,94.3916,VALID,0.105969,VALID,24.3937,VALID,97,VALID,0.717578,
2008-09-12, 03:37:05,VALID,1007.61,VALID,0,VALID,94.3763,VALID,0,VALID,24.3937,VALID,97,VALID,0.786719,
2008-09-12, 03:38:05,VALID,1007.63,VALID,0,VALID,94.3534,VALID,0.105969,VALID,24.4132,VALID,100,VALID,0.707031,
2008-09-12, 03:39:05,VALID,1007.63,VALID,0,VALID,94.3916,VALID,0,VALID,24.4327,VALID,135,VALID,0.630859,
2008-09-12, 03:40:05,VALID,1007.61,VALID,0,VALID,94.3763,VALID,0,VALID,24.4522,VALID,156,VALID,0.637891,
2008-09-12, 03:41:05,VALID,1007.61,VALID,0,VALID,94.3687,VALID,0,VALID,24.4345,VALID,144,VALID,0.917188,
2008-09-12, 03:42:05,VALID,1007.59,VALID,0,VALID,94.3458,VALID,0,VALID,24.4345,VALID,158,VALID,0.632031,